Flag for U.S.A. Weather past 2 weeks in Dover, Delaware, U.S.A.

Now
73 °F

Clear.


Feels Like: 67 °F
Forecast: 71 / 89 °F
Wind: 8 mph from Southwest

Location: Dover Air Force Base

Current Time: Sep 1, 2015 at 4:09:24 AM

Latest Report: Sep 1, 2015 at 2:58 AM


Visibility: 10 mi

Pressure: 30.03 "Hg

Humidity: 100%

Dew point: 73 °F

Location of DoverLocation

Historic Weather in Dover — Graph

°F

Dover temperature yesterday

Maximum temperature yesterday: 89 °F (at 2:58 PM)
Minimum temperature yesterday: 74 °F (at 6:58 AM)
Average temperature yesterday: 79 °F

Past Weeks' High & Low Weather Summary

 TemperatureHumidityPressure
High89 °F (Aug 17, 1:58 PM)100% (Aug 17, 2:58 AM)30.23 "Hg (Aug 17, 2:58 AM)
Low58 °F (Aug 28, 5:58 AM)43% (Aug 22, 2:58 PM)29.83 "Hg (Aug 24, 5:58 PM)
Average75 °F78%30.02 "Hg
* Reported Aug 17 2:58 AM — Sep 1 2:58 AM, Dover, Weather by CustomWeather, © 2015

Note: Actual official high and low records may vary slightly from our data, if they occured in-between our weather recording intervals... More about our weather records

Advertising

Dover weather history for previous 24 hours

 ConditionsComfort  
Time TempWeatherWind HumidityBarometerVisibility
2:58 AM
Tue, Sep 1
73 °FClear.8 mph100%30.03 "Hg10 mi
1:58 AM73 °FClear.7 mph100%30.04 "Hg10 mi
12:58 AM74 °FClear.8 mph100%30.04 "Hg10 mi
10:58 PM
Mon, Aug 31
75 °FClear.7 mph99%30.05 "Hg10 mi
9:58 PM76 °FClear.10 mph87%30.05 "Hg10 mi
8:58 PM77 °FClear.7 mph74%30.03 "Hg10 mi
7:58 PM79 °FSunny.5 mph68%30.03 "Hg10 mi
6:58 PM83 °FSunny.8 mph59%30.02 "Hg10 mi
4:58 PM85 °FSunny.12 mph54%30.03 "Hg10 mi
3:58 PM85 °FSunny.14 mph54%30.03 "Hg9 mi
2:58 PM89 °FPassing clouds.14 mph48%30.03 "Hg10 mi
1:58 PM88 °FPassing clouds.9 mph52%30.06 "Hg9 mi
12:58 PM85 °FScattered clouds.8 mph55%30.07 "Hg8 mi
11:58 AM85 °FPassing clouds.8 mph63%30.09 "Hg10 mi
10:58 AM83 °FPassing clouds.8 mph66%30.09 "Hg9 mi
9:58 AM81 °FSunny.8 mph71%30.08 "Hg9 mi
8:58 AM76 °FSunny.8 mph81%30.07 "Hg9 mi
7:58 AM75 °FScattered clouds.8 mph85%30.08 "Hg7 mi
6:58 AM74 °FPassing clouds.5 mph85%30.07 "Hg10 mi
5:58 AM74 °FPassing clouds.7 mph84%30.05 "Hg10 mi
4:58 AM75 °FPassing clouds.9 mph82%30.05 "Hg10 mi
Weather by CustomWeather, © 2015

See weather overviewHow to use our weather pages